Torna al catalogo

METEOR 2-5 DEB

LostPO
NORAD 38277·DEBRIS·🇷🇺 Russia

Lanciato Oct 31, 1979 da Plesetsk Cosmodrome

Loading…

Prossimi Passaggi (prossime 24 ore)

TLE

ObsoletoSource: Space-Track

Epoca: Jun 25, 2024, 12:19 UTC

1 38277U 79095BX  24177.51338141  .00018188  00000-0  49589-2 0  9997
2 38277  81.2000  96.3913 0012804  75.9025  47.4948 14.47237947668503

Traccia METEOR 2-5 DEB in tempo reale con AllMySat

Download on the App Store